CAPE
0 0 0 nan nan nan nan 1 0 0 nan nan nan nan nan 0 0 0 nan nan nan nan nan nan nan nan nan 1 2 2 3 3 3 3 2 1 nan nan nan nan nan nan nan nan nan nan 2 6 6 7 6 6 5 5 7 8 8 9 14 14 14 19 23 23 23 23 16 8 1 1 nan nan nan nan nan nan nan nan nan nan nan nan nan nan nan nan
0 0 0 0 0 nan nan 2 nan nan nan nan nan nan nan nan nan nan nan nan nan nan nan nan nan nan nan 1 4 4 5 6 5 5 4 3 1 1 0 nan nan nan nan nan nan 2 6 6 6 4 1 0 0 0 0 1 1 0 1 3 3 5 7 10 10 8 6 3 0 0 nan nan nan nan nan nan nan nan nan nan nan nan nan nan nan nan
0 0 nan 0 0 nan nan 0 nan nan nan nan nan nan nan nan nan nan nan nan nan nan nan nan nan nan nan 1 5 5 6 6 5 5 6 5 3 3 2 1 1 1 2 2 2 5 6 4 4 1 nan nan nan nan nan nan nan nan nan nan nan nan 0 1 1 1 0 nan nan nan nan nan nan nan nan nan nan nan nan nan nan nan nan nan nan nan
0 nan nan nan nan nan nan nan nan nan nan nan nan nan nan nan nan nan nan nan nan nan nan nan nan nan nan 1 7 7 9 9 7 7 7 6 5 5 4 4 4 4 4 5 5 8 7 3 3 0 nan nan nan nan nan nan nan nan nan nan nan nan nan nan nan nan nan nan nan nan nan nan nan nan nan nan nan nan nan nan nan nan nan nan nan nan
nan nan nan nan nan 0 0 nan nan nan nan nan nan nan nan nan nan nan nan nan nan nan nan nan nan nan nan nan 6 6 11 11 9 9 9 8 6 6 6 7 7 6 7 8 8 9 7 3 3 nan nan nan nan nan nan nan nan nan nan nan nan nan nan nan nan nan nan nan nan nan nan nan nan nan nan nan nan nan nan nan nan nan nan nan nan nan
nan nan nan nan nan nan nan nan nan nan nan nan nan nan nan nan nan nan nan nan nan nan nan nan nan nan nan nan 7 7 12 12 9 9 10 9 8 8 10 10 10 9 9 10 10 8 7 2 2 nan nan nan nan nan nan nan nan nan nan nan nan nan nan nan nan nan nan nan nan nan nan nan nan nan nan nan nan nan nan nan nan nan nan nan nan nan
nan 0 0 nan nan nan nan nan nan nan nan nan nan nan nan nan nan nan nan nan nan nan nan nan nan nan nan nan 3 3 9 12 12 12 9 9 9 9 12 14 14 11 11 10 10 8 6 2 2 nan nan nan nan nan nan nan nan nan nan nan nan nan nan nan nan nan nan nan nan nan nan nan nan nan nan nan nan nan nan nan nan nan nan nan nan nan
nan nan nan nan nan nan 0 nan nan nan nan nan nan nan nan nan nan nan nan nan nan nan nan nan nan nan nan nan nan nan 0 0 2 2 5 8 11 11 13 16 16 16 15 11 11 7 4 0 0 nan nan nan nan nan nan nan nan nan nan nan nan nan nan nan nan nan nan nan nan nan nan nan nan nan nan nan nan nan nan nan nan nan nan nan nan nan
nan nan nan nan nan nan nan 0 nan nan nan nan nan nan nan nan nan nan nan nan nan nan nan nan nan nan nan nan nan nan 3 2 nan nan 0 nan 0 0 10 17 17 19 16 12 12 6 2 nan nan nan nan nan nan nan nan nan nan nan nan nan nan nan nan nan nan nan nan nan nan nan nan nan nan nan nan nan nan nan nan nan nan nan nan nan nan nan
nan nan nan nan nan nan nan nan nan nan nan nan nan nan nan nan nan nan nan nan nan nan nan nan nan nan nan nan nan nan 1 6 9 9 7 2 8 8 10 13 13 14 13 10 10 5 1 nan nan nan nan nan nan nan nan nan nan nan nan nan nan nan nan nan nan nan nan nan nan nan nan nan nan nan nan nan nan nan nan nan nan nan nan nan nan nan
nan nan nan nan nan nan nan nan nan nan nan nan nan nan nan nan nan nan nan nan nan nan nan nan nan nan nan nan nan nan nan nan nan nan nan nan 6 6 12 8 8 9 12 5 5 2 nan nan nan nan nan nan nan nan nan nan nan nan nan nan nan nan nan nan nan nan nan nan nan nan nan nan nan nan nan nan nan nan nan nan nan nan nan nan nan nan
nan nan nan nan nan nan nan nan nan nan nan nan nan nan 0 0 nan nan nan nan nan nan nan nan nan nan nan nan nan nan nan nan nan nan nan nan nan nan 0 0 0 2 2 1 1 0 nan nan nan nan nan nan nan nan nan nan nan nan nan nan nan nan nan nan nan nan nan nan nan nan nan nan nan nan nan nan nan nan nan nan nan nan nan nan nan nan
nan nan nan nan nan nan nan 0 nan nan nan nan nan nan nan 0 nan nan nan nan nan nan nan nan nan nan nan nan nan nan nan nan nan nan nan nan nan nan nan nan nan nan nan nan nan nan nan nan nan nan nan nan nan nan nan nan nan nan nan nan nan nan nan nan nan nan nan nan nan nan nan nan nan nan nan nan nan nan nan nan nan nan nan nan nan nan
nan nan nan nan nan nan nan nan nan nan nan nan nan nan nan nan nan nan nan nan nan nan nan nan nan nan nan nan nan nan nan nan nan nan nan nan nan nan nan nan nan nan nan nan nan nan nan nan nan nan nan nan nan nan nan nan nan nan nan nan nan nan nan nan nan nan nan nan nan nan nan nan nan nan nan nan 0 0 0 nan nan nan nan nan nan nan
nan nan nan nan nan nan nan nan nan nan nan nan nan nan nan nan nan nan nan 0 0 0 nan nan nan nan nan nan nan nan nan nan 0 0 nan nan nan nan nan nan nan nan nan nan nan nan nan nan nan nan nan nan nan nan nan nan nan nan nan nan nan nan nan nan nan nan nan nan nan nan nan nan nan nan nan 0 0 0 0 0 0 nan nan nan nan nan
nan nan nan nan nan nan nan nan nan nan nan nan nan nan nan nan nan nan nan nan nan nan nan 0 0 nan 0 nan nan nan nan nan nan nan nan nan nan nan nan nan nan nan nan nan nan nan nan nan nan nan nan nan nan nan nan nan nan nan nan nan nan nan nan nan nan nan nan nan nan nan nan nan nan nan nan 0 0 0 1 0 0 nan nan nan nan nan
nan nan nan nan nan nan nan nan nan nan nan 0 nan nan nan nan nan nan nan nan nan nan nan nan nan 0 nan nan nan nan nan nan nan nan nan nan nan nan nan nan nan nan nan nan nan nan nan nan nan nan nan nan nan nan nan nan nan nan nan nan nan nan nan nan nan nan nan nan nan nan nan nan nan nan 0 1 1 1 1 0 0 nan nan nan nan nan
nan nan nan nan nan nan nan nan nan nan nan nan nan nan nan nan nan nan nan nan nan nan nan 0 0 nan nan nan nan nan nan nan nan nan nan nan nan nan nan nan nan nan nan nan nan nan nan nan nan nan nan nan nan nan nan nan nan nan nan nan nan nan nan nan nan nan 0 0 0 0 nan nan 0 0 1 1 1 1 1 0 0 0 nan nan nan nan
nan nan nan nan nan nan nan nan nan nan nan nan nan nan nan nan nan nan nan nan nan nan nan nan nan nan nan nan nan nan nan nan nan nan nan nan nan nan nan nan nan nan nan nan nan nan nan nan nan nan nan nan nan nan nan nan nan nan nan nan nan nan nan nan nan 0 1 0 0 0 0 0 0 0 1 1 1 1 1 1 1 0 nan 1 1 0
nan nan nan nan nan nan nan nan nan nan nan nan nan nan nan nan nan nan nan nan nan nan nan nan nan nan 0 nan nan nan nan nan nan nan nan nan nan nan nan nan nan nan nan nan nan nan nan nan nan nan nan nan nan nan nan nan nan nan nan nan nan nan nan 0 0 1 1 1 1 1 0 1 1 1 1 1 1 1 1 1 1 0 0 1 1 1
nan nan nan nan nan nan nan nan nan nan nan nan nan nan nan nan nan nan nan nan nan nan nan 0 0 2 nan nan nan nan nan nan nan nan nan nan nan nan nan nan nan nan nan nan nan nan nan nan nan nan nan nan nan nan nan nan nan nan nan nan nan nan nan 0 0 1 1 1 0 0 1 1 1 1 1 1 1 1 1 1 1 0 0 1 1 0
nan nan nan nan nan nan nan nan nan nan nan nan nan nan nan nan nan nan nan nan nan nan 1 0 0 nan nan nan nan nan nan nan nan nan nan nan nan nan nan nan nan nan nan nan nan nan nan nan nan nan nan nan nan nan nan nan nan nan nan nan nan nan 0 1 1 2 2 2 1 1 1 1 2 2 1 1 1 1 1 1 1 1 0 1 1 1
nan nan nan nan nan nan nan nan nan nan nan nan nan nan nan nan nan nan nan nan nan nan nan nan nan nan nan nan nan nan nan nan nan nan nan nan nan nan nan nan nan nan nan nan nan nan nan nan nan nan nan nan nan nan nan nan nan nan nan nan nan nan 0 1 1 2 3 2 1 1 1 2 2 2 2 2 2 2 2 1 1 1 1 1 1 2
nan nan nan nan nan nan nan nan nan nan nan nan nan nan nan nan nan nan nan nan nan nan nan nan nan nan nan nan nan nan nan nan nan nan nan nan nan nan nan nan nan nan nan nan nan nan nan nan nan nan nan nan nan nan nan nan nan nan nan nan nan nan 0 1 1 3 4 4 3 3 3 3 3 3 3 3 3 3 2 2 2 2 2 2 2 2
nan nan nan nan nan nan nan nan nan nan nan nan nan nan nan nan nan nan nan nan nan nan nan nan nan nan nan nan nan nan nan nan nan nan nan nan nan nan nan nan nan nan nan nan nan nan nan nan nan nan nan nan nan nan nan nan nan nan nan nan nan nan 0 2 2 5 5 4 4 4 4 4 4 4 4 4 4 4 4 4 4 3 3 2 2 2
nan nan nan nan nan nan nan nan nan nan nan nan nan nan nan nan nan nan nan nan nan nan nan nan nan nan nan nan nan nan nan nan nan nan nan nan nan nan nan nan nan nan nan nan nan nan nan nan nan nan nan nan nan nan nan nan nan nan nan nan nan nan 0 3 3 5 6 5 4 4 4 4 4 4 3 4 5 5 5 4 4 4 4 2 2 2
nan nan nan nan nan nan nan nan nan nan nan nan nan nan nan nan nan nan nan nan nan nan nan nan nan nan nan nan nan nan nan nan nan nan nan nan nan nan nan nan nan nan nan nan nan nan nan nan nan nan nan nan nan nan nan nan nan nan nan nan nan nan 0 4 4 7 6 6 5 5 3 3 2 2 3 3 3 3 4 5 5 4 5 2 2 2
nan nan nan nan nan nan nan nan nan nan nan nan nan nan nan nan nan nan nan nan nan nan nan nan nan nan nan nan nan nan nan nan nan nan nan nan nan nan nan nan nan nan nan nan nan nan nan nan nan nan nan nan nan nan nan nan nan nan nan nan nan nan 1 5 5 7 6 4 2 2 1 1 1 1 1 2 3 3 3 4 4 4 3 2 2 0
nan nan nan nan nan nan nan nan 1 1 1 0 nan nan nan nan nan nan nan nan nan nan nan nan nan nan nan nan nan nan nan nan nan nan nan nan nan nan nan nan nan nan nan nan nan nan nan nan nan nan nan nan nan nan nan nan nan nan nan nan nan nan 3 6 6 6 4 2 0 0 nan nan 0 0 1 1 3 3 3 4 4 4 3 0 0 nan
nan nan nan nan nan nan nan 0 3 3 5 3 1 1 nan nan nan nan nan nan nan nan nan nan nan nan nan nan nan nan nan nan nan nan nan nan nan nan nan nan nan nan nan nan nan nan nan nan nan nan nan nan nan nan nan nan nan nan nan nan nan 2 5 7 7 5 2 1 nan nan nan nan nan nan nan 0 2 2 3 4 4 3 2 nan nan nan
nan nan nan nan nan nan nan 0 2 2 6 6 3 3 0 nan nan nan nan nan nan nan nan nan nan nan nan nan nan nan nan nan nan nan nan nan nan nan nan nan nan nan nan nan nan nan nan nan nan nan nan nan nan nan nan nan nan nan nan nan nan 3 6 3 3 2 1 nan nan nan nan nan nan nan nan nan 0 0 3 4 4 4 0 nan nan nan
nan nan nan nan nan nan nan nan nan nan nan nan nan nan nan nan nan nan nan nan nan nan nan nan nan nan nan nan nan nan nan nan nan nan nan nan nan nan nan nan nan nan nan nan nan nan nan nan nan nan nan nan nan nan nan nan nan nan nan nan nan nan nan nan nan nan nan nan nan nan nan nan nan nan nan nan nan nan 0 2 2 3 0 0 0 0
nan nan nan nan nan nan nan nan nan nan nan nan nan nan nan nan nan nan nan nan nan nan nan nan nan nan nan nan nan nan nan nan nan nan nan nan nan nan nan nan nan nan nan nan nan nan nan nan nan nan nan nan nan nan nan nan nan nan nan nan nan nan nan nan nan nan nan nan nan nan nan nan nan nan nan nan nan nan nan 1 1 3 3 0 0 0
nan nan nan nan nan nan nan nan nan nan nan nan nan nan nan nan nan nan nan nan nan nan nan nan nan nan nan nan nan nan nan nan nan nan nan nan nan nan nan nan nan nan nan nan nan nan nan nan nan nan nan nan nan nan nan nan nan nan nan nan nan nan nan nan nan nan nan nan nan nan nan nan nan nan nan nan nan nan nan nan nan 1 3 2 2 0
nan nan nan nan nan nan nan nan nan nan nan nan nan nan nan nan nan nan nan nan nan nan nan nan nan nan nan nan nan nan nan nan nan nan nan nan nan nan nan nan nan nan nan nan nan nan nan nan nan nan nan nan nan nan nan nan nan nan nan nan nan nan nan nan nan nan nan nan nan nan nan nan nan nan nan nan nan nan nan nan nan nan 2 4 4 2
nan nan nan nan nan nan nan nan nan nan nan nan nan nan nan nan nan nan nan nan nan nan nan nan nan nan nan nan nan nan nan nan nan nan nan nan nan nan nan nan nan nan nan nan nan nan nan nan nan nan nan nan nan nan nan nan nan nan nan nan nan nan nan nan nan nan nan nan nan nan nan nan nan nan nan nan nan nan nan nan nan nan 0 3 3 4
nan nan nan nan nan nan nan nan nan nan nan nan nan nan nan nan nan nan nan nan nan nan nan nan nan nan nan nan nan nan nan nan nan nan nan nan nan nan nan nan nan nan nan nan nan nan nan nan nan nan nan nan nan nan nan nan nan nan nan nan nan nan nan nan nan nan nan nan nan nan nan nan nan nan nan nan nan nan nan nan nan nan nan 1 1 4
nan nan nan nan nan nan nan nan nan nan nan nan nan nan nan nan nan nan nan nan nan nan nan nan nan nan nan nan nan nan nan nan nan nan nan nan nan nan nan nan nan nan nan nan nan nan nan nan nan nan nan nan nan nan nan nan nan nan nan nan nan nan nan nan nan nan nan nan nan nan nan nan nan nan nan nan nan nan nan nan nan nan nan 0 0 2
nan nan nan nan nan nan nan nan nan nan nan nan nan nan nan nan nan nan nan nan nan nan nan nan nan nan nan nan nan nan nan nan nan nan nan nan nan nan nan nan nan nan nan nan nan nan nan nan nan nan nan nan nan nan nan nan nan nan nan nan nan nan nan nan nan nan nan nan nan nan nan nan nan nan nan nan nan nan nan nan nan nan nan nan nan nan
nan nan nan nan nan nan nan nan nan nan nan nan nan nan nan nan nan nan nan nan nan nan nan nan nan nan nan nan nan nan nan nan nan nan nan nan nan nan nan nan nan nan nan nan nan nan nan nan nan nan nan nan nan nan nan nan nan nan nan nan nan nan nan nan nan nan nan nan nan nan nan nan nan nan nan nan nan nan nan nan nan nan nan nan nan nan
nan nan nan nan nan nan nan nan nan nan nan nan nan nan nan nan nan nan nan nan nan nan nan nan nan nan nan nan nan nan nan nan nan nan nan nan nan nan nan nan nan nan nan nan nan nan nan nan nan nan nan nan nan nan nan nan nan nan nan nan nan nan nan nan nan nan nan nan nan nan nan nan nan nan nan nan nan nan nan nan nan nan nan nan nan nan
nan nan nan nan nan nan nan nan nan nan nan nan nan nan nan nan nan nan nan nan nan nan nan nan nan nan nan nan nan nan nan nan nan nan nan nan nan nan nan nan nan nan nan nan nan nan nan nan nan nan nan nan nan nan nan nan nan nan nan nan nan nan nan nan nan nan nan nan nan nan nan nan nan nan nan nan nan nan nan nan nan nan nan nan nan nan
nan nan nan nan nan nan nan nan nan nan nan nan nan nan nan nan nan nan nan nan nan nan nan nan nan nan nan nan nan nan nan nan nan nan nan nan nan nan nan nan nan nan nan nan nan nan nan nan nan nan nan nan nan nan nan nan nan nan nan nan nan nan nan nan nan nan nan nan nan nan nan nan nan nan nan nan nan nan nan nan nan nan nan nan nan nan
nan nan nan nan nan nan nan nan nan nan nan nan nan nan nan nan nan nan nan nan nan nan nan nan nan nan nan nan nan nan nan nan nan nan nan nan nan nan nan nan nan nan nan nan nan nan nan nan nan nan nan nan nan nan nan nan nan nan nan nan nan nan nan nan nan nan nan nan nan nan nan nan nan nan nan nan nan nan nan nan nan nan nan nan nan nan
nan nan nan nan nan nan nan nan nan nan nan nan nan nan nan nan nan nan nan nan nan nan nan nan nan nan nan nan nan nan nan nan nan nan nan nan nan nan nan nan nan nan nan nan nan nan nan nan nan nan nan nan nan nan nan nan nan nan nan nan nan nan nan nan nan nan nan nan nan nan nan nan nan nan nan nan nan nan nan nan nan nan nan nan nan nan
nan nan nan nan nan nan nan nan nan nan nan nan nan nan nan nan nan nan nan nan nan nan nan nan nan nan nan nan nan nan nan nan nan nan nan nan nan nan nan nan nan nan nan nan nan nan nan nan nan nan nan nan nan nan nan nan nan nan nan nan nan nan nan nan nan nan nan nan nan nan nan nan nan nan nan nan nan nan nan nan nan nan nan nan nan nan
nan nan nan nan nan nan nan nan nan nan nan nan nan nan nan nan nan nan nan nan nan nan nan nan nan nan nan nan nan nan nan nan nan nan nan nan nan nan nan nan nan nan nan nan nan nan nan nan nan nan nan nan nan nan nan nan nan nan nan nan nan nan nan nan nan nan nan nan nan nan nan nan nan nan nan nan nan nan nan nan nan nan nan nan nan nan
nan nan nan nan nan nan nan nan nan nan nan nan nan nan nan nan nan nan nan nan nan nan nan nan nan nan nan nan nan nan nan nan nan nan nan nan nan nan nan nan nan nan nan nan nan nan nan nan nan nan nan nan nan nan nan nan nan nan nan nan nan nan nan nan nan nan nan nan nan nan nan nan nan nan nan nan nan nan nan nan nan nan nan nan nan nan
nan nan nan nan nan nan nan nan nan nan nan nan nan nan nan nan nan nan nan nan nan nan nan nan nan nan nan nan nan nan nan nan nan nan nan nan nan nan nan nan nan nan nan nan nan nan nan nan nan nan nan nan nan nan nan nan nan nan nan nan nan nan nan nan nan nan nan nan nan nan nan nan nan nan nan nan nan nan nan nan nan nan nan nan nan nan
nan nan nan nan nan nan nan nan nan nan nan nan nan nan nan nan nan nan nan nan nan nan nan nan nan nan nan nan nan nan nan nan nan nan nan nan nan nan nan nan nan nan nan nan nan nan nan nan nan nan nan nan nan nan nan nan nan nan nan nan nan nan nan nan nan nan nan nan nan nan nan nan nan nan nan nan nan nan nan nan nan nan nan nan nan nan
nan nan nan nan nan nan nan nan nan nan nan nan nan nan nan nan nan nan nan nan nan nan nan nan nan nan nan nan nan nan nan nan nan nan nan nan nan nan nan nan nan nan nan nan nan nan nan nan nan nan nan nan nan nan nan nan nan nan nan nan nan nan nan nan nan nan nan nan nan nan nan nan nan nan nan nan nan nan nan nan nan nan nan nan nan nan
CIN
-0 -0 -1 nan nan nan nan -1 -1 -1 nan nan nan nan nan -0 -0 -0 nan nan nan nan nan nan nan nan nan -1 -0 -0 -0 -0 -0 -0 -0 -0 nan nan nan nan nan nan nan nan nan nan -0 -0 -0 -1 -2 -1 -1 -1 -1 -0 -0 -1 -0 -0 -0 -0 -0 -0 -0 -0 -0 -0 -0 -0 nan nan nan nan nan nan nan nan nan nan nan nan nan nan nan nan
-0 -0 -0 -0 -0 nan nan -0 nan nan nan nan nan nan nan nan nan nan nan nan nan nan nan nan nan nan nan -1 -0 -0 -0 -0 -0 -0 -0 -0 -0 -0 -0 nan nan nan nan nan nan -0 -0 -0 -0 -1 -0 -1 -1 -1 -1 -1 -1 -0 -0 -0 -0 -0 -0 -0 -0 -0 -0 -0 -0 -0 nan nan nan nan nan nan nan nan nan nan nan nan nan nan nan nan
-0 -0 nan -0 -0 nan nan -0 nan nan nan nan nan nan nan nan nan nan nan nan nan nan nan nan nan nan nan -1 -0 -0 -0 -0 -0 -0 -0 -0 -0 -0 -0 -0 -0 -0 -0 -0 -0 -0 -0 -0 -0 -0 nan nan nan nan nan nan nan nan nan nan nan nan -0 -0 -0 -0 -0 nan nan nan nan nan nan nan nan nan nan nan nan nan nan nan nan nan nan nan
-0 nan nan nan nan nan nan nan nan nan nan nan nan nan nan nan nan nan nan nan nan nan nan nan nan nan nan -1 -0 -0 -0 -0 -0 -0 -0 -0 -0 -0 -0 -0 -0 -0 -0 -0 -0 -0 -0 -0 -0 -1 nan nan nan nan nan nan nan nan nan nan nan nan nan nan nan nan nan nan nan nan nan nan nan nan nan nan nan nan nan nan nan nan nan nan nan nan
nan nan nan nan nan -0 -1 nan nan nan nan nan nan nan nan nan nan nan nan nan nan nan nan nan nan nan nan nan -0 -0 -0 -0 -0 -0 -0 -0 -0 -0 -0 -0 -0 -0 -0 -0 -0 -0 -0 -0 -0 nan nan nan nan nan nan nan nan nan nan nan nan nan nan nan nan nan nan nan nan nan nan nan nan nan nan nan nan nan nan nan nan nan nan nan nan nan
nan nan nan nan nan nan nan nan nan nan nan nan nan nan nan nan nan nan nan nan nan nan nan nan nan nan nan nan -0 -0 -0 -0 -0 -0 -0 -0 -0 -0 -0 -0 -0 -0 -0 -0 -0 -0 -0 -0 -0 nan nan nan nan nan nan nan nan nan nan nan nan nan nan nan nan nan nan nan nan nan nan nan nan nan nan nan nan nan nan nan nan nan nan nan nan nan
nan -1 -1 nan nan nan nan nan nan nan nan nan nan nan nan nan nan nan nan nan nan nan nan nan nan nan nan nan -0 -0 -0 -0 -0 -0 -0 -0 -0 -0 -0 -0 -0 -0 -0 -0 -0 -0 -0 -0 -0 nan nan nan nan nan nan nan nan nan nan nan nan nan nan nan nan nan nan nan nan nan nan nan nan nan nan nan nan nan nan nan nan nan nan nan nan nan
nan nan nan nan nan nan -0 nan nan nan nan nan nan nan nan nan nan nan nan nan nan nan nan nan nan nan nan nan nan nan -2 -2 -1 -1 -0 -0 -0 -0 -0 -0 -0 -0 -0 -0 -0 -0 -0 -0 -0 nan nan nan nan nan nan nan nan nan nan nan nan nan nan nan nan nan nan nan nan nan nan nan nan nan nan nan nan nan nan nan nan nan nan nan nan nan
nan nan nan nan nan nan nan -0 nan nan nan nan nan nan nan nan nan nan nan nan nan nan nan nan nan nan nan nan nan nan -1 -1 nan nan -2 nan -3 -3 -0 -0 -0 -0 -0 -0 -0 -0 -0 nan nan nan nan nan nan nan nan nan nan nan nan nan nan nan nan nan nan nan nan nan nan nan nan nan nan nan nan nan nan nan nan nan nan nan nan nan nan nan
nan nan nan nan nan nan nan nan nan nan nan nan nan nan nan nan nan nan nan nan nan nan nan nan nan nan nan nan nan nan -2 -1 -0 -0 -0 -2 -0 -0 -0 -0 -0 -0 -0 -0 -0 -0 -0 nan nan nan nan nan nan nan nan nan nan nan nan nan nan nan nan nan nan nan nan nan nan nan nan nan nan nan nan nan nan nan nan nan nan nan nan nan nan nan
nan nan nan nan nan nan nan nan nan nan nan nan nan nan nan nan nan nan nan nan nan nan nan nan nan nan nan nan nan nan nan nan nan nan nan nan -2 -2 -0 -2 -2 -0 -0 -0 -0 -0 nan nan nan nan nan nan nan nan nan nan nan nan nan nan nan nan nan nan nan nan nan nan nan nan nan nan nan nan nan nan nan nan nan nan nan nan nan nan nan nan
nan nan nan nan nan nan nan nan nan nan nan nan nan nan -0 -1 nan nan nan nan nan nan nan nan nan nan nan nan nan nan nan nan nan nan nan nan nan nan -6 -7 -7 -1 -0 -0 -0 -0 nan nan nan nan nan nan nan nan nan nan nan nan nan nan nan nan nan nan nan nan nan nan nan nan nan nan nan nan nan nan nan nan nan nan nan nan nan nan nan nan
nan nan nan nan nan nan nan -0 nan nan nan nan nan nan nan -1 nan nan nan nan nan nan nan nan nan nan nan nan nan nan nan nan nan nan nan nan nan nan nan nan nan nan nan nan nan nan nan nan nan nan nan nan nan nan nan nan nan nan nan nan nan nan nan nan nan nan nan nan nan nan nan nan nan nan nan nan nan nan nan nan nan nan nan nan nan nan
nan nan nan nan nan nan nan nan nan nan nan nan nan nan nan nan nan nan nan nan nan nan nan nan nan nan nan nan nan nan nan nan nan nan nan nan nan nan nan nan nan nan nan nan nan nan nan nan nan nan nan nan nan nan nan nan nan nan nan nan nan nan nan nan nan nan nan nan nan nan nan nan nan nan nan nan -0 -0 -0 nan nan nan nan nan nan nan
nan nan nan nan nan nan nan nan nan nan nan nan nan nan nan nan nan nan nan -0 -0 -0 nan nan nan nan nan nan nan nan nan nan -2 -2 nan nan nan nan nan nan nan nan nan nan nan nan nan nan nan nan nan nan nan nan nan nan nan nan nan nan nan nan nan nan nan nan nan nan nan nan nan nan nan nan nan -0 -0 -0 -0 -0 -0 nan nan nan nan nan
nan nan nan nan nan nan nan nan nan nan nan nan nan nan nan nan nan nan nan nan nan nan nan -0 -0 nan -0 nan nan nan nan nan nan nan nan nan nan nan nan nan nan nan nan nan nan nan nan nan nan nan nan nan nan nan nan nan nan nan nan nan nan nan nan nan nan nan nan nan nan nan nan nan nan nan nan -0 -0 -0 -0 -0 -0 nan nan nan nan nan
nan nan nan nan nan nan nan nan nan nan nan -3 nan nan nan nan nan nan nan nan nan nan nan nan nan -0 nan nan nan nan nan nan nan nan nan nan nan nan nan nan nan nan nan nan nan nan nan nan nan nan nan nan nan nan nan nan nan nan nan nan nan nan nan nan nan nan nan nan nan nan nan nan nan nan -0 -0 -0 -0 -0 -0 -0 nan nan nan nan nan
nan nan nan nan nan nan nan nan nan nan nan nan nan nan nan nan nan nan nan nan nan nan nan -1 -1 nan nan nan nan nan nan nan nan nan nan nan nan nan nan nan nan nan nan nan nan nan nan nan nan nan nan nan nan nan nan nan nan nan nan nan nan nan nan nan nan nan -0 -0 -0 -0 nan nan -0 -0 -0 -0 -0 -0 -0 -0 -0 -0 nan nan nan nan
nan nan nan nan nan nan nan nan nan nan nan nan nan nan nan nan nan nan nan nan nan nan nan nan nan nan nan nan nan nan nan nan nan nan nan nan nan nan nan nan nan nan nan nan nan nan nan nan nan nan nan nan nan nan nan nan nan nan nan nan nan nan nan nan nan -0 -0 -0 -0 -0 -0 -0 -0 -0 -0 -0 -0 -0 -0 -0 -0 -0 nan -0 -0 -0
nan nan nan nan nan nan nan nan nan nan nan nan nan nan nan nan nan nan nan nan nan nan nan nan nan nan -4 nan nan nan nan nan nan nan nan nan nan nan nan nan nan nan nan nan nan nan nan nan nan nan nan nan nan nan nan nan nan nan nan nan nan nan nan -0 -0 -0 -0 -0 -0 -0 -0 -0 -0 -0 -0 -0 -0 -0 -0 -0 -0 -0 -0 -0 -0 -0
nan nan nan nan nan nan nan nan nan nan nan nan nan nan nan nan nan nan nan nan nan nan nan -3 -3 -3 nan nan nan nan nan nan nan nan nan nan nan nan nan nan nan nan nan nan nan nan nan nan nan nan nan nan nan nan nan nan nan nan nan nan nan nan nan -0 -0 -0 -0 -0 -0 -0 -0 -0 -0 -0 -0 -0 -0 -0 -0 -0 -0 -0 -0 -0 -0 -0
nan nan nan nan nan nan nan nan nan nan nan nan nan nan nan nan nan nan nan nan nan nan -2 -4 -4 nan nan nan nan nan nan nan nan nan nan nan nan nan nan nan nan nan nan nan nan nan nan nan nan nan nan nan nan nan nan nan nan nan nan nan nan nan -0 -0 -0 -0 -0 -0 -0 -0 -0 -0 -0 -0 -0 -0 -0 -0 -0 -0 -0 -0 -0 -0 -0 -0
nan nan nan nan nan nan nan nan nan nan nan nan nan nan nan nan nan nan nan nan nan nan nan nan nan nan nan nan nan nan nan nan nan nan nan nan nan nan nan nan nan nan nan nan nan nan nan nan nan nan nan nan nan nan nan nan nan nan nan nan nan nan -0 -0 -0 -0 -0 -0 -0 -0 -0 -0 -0 -0 -0 -0 -0 -0 -0 -0 -0 -0 -0 -0 -0 -0
nan nan nan nan nan nan nan nan nan nan nan nan nan nan nan nan nan nan nan nan nan nan nan nan nan nan nan nan nan nan nan nan nan nan nan nan nan nan nan nan nan nan nan nan nan nan nan nan nan nan nan nan nan nan nan nan nan nan nan nan nan nan -0 -0 -0 -0 -0 -0 -0 -0 -0 -0 -0 -0 -0 -0 -0 -0 -0 -0 -0 -0 -0 -0 -0 -0
nan nan nan nan nan nan nan nan nan nan nan nan nan nan nan nan nan nan nan nan nan nan nan nan nan nan nan nan nan nan nan nan nan nan nan nan nan nan nan nan nan nan nan nan nan nan nan nan nan nan nan nan nan nan nan nan nan nan nan nan nan nan -0 -0 -0 -0 -0 -0 -0 -0 -0 -0 -0 -0 -0 -0 -0 -0 -0 -0 -0 -0 -0 -0 -0 -0
nan nan nan nan nan nan nan nan nan nan nan nan nan nan nan nan nan nan nan nan nan nan nan nan nan nan nan nan nan nan nan nan nan nan nan nan nan nan nan nan nan nan nan nan nan nan nan nan nan nan nan nan nan nan nan nan nan nan nan nan nan nan -0 -0 -0 -0 -0 -0 -0 -0 -0 -0 -0 -0 -0 -0 -0 -0 -0 -0 -0 -0 -0 -0 -0 -0
nan nan nan nan nan nan nan nan nan nan nan nan nan nan nan nan nan nan nan nan nan nan nan nan nan nan nan nan nan nan nan nan nan nan nan nan nan nan nan nan nan nan nan nan nan nan nan nan nan nan nan nan nan nan nan nan nan nan nan nan nan nan -0 -0 -0 -0 -0 -0 -0 -0 -0 -0 -0 -0 -0 -0 -0 -0 -0 -0 -0 -0 -0 -0 -0 -0
nan nan nan nan nan nan nan nan nan nan nan nan nan nan nan nan nan nan nan nan nan nan nan nan nan nan nan nan nan nan nan nan nan nan nan nan nan nan nan nan nan nan nan nan nan nan nan nan nan nan nan nan nan nan nan nan nan nan nan nan nan nan -0 -0 -0 -0 -0 -0 -0 -0 -0 -0 -0 -0 -0 -0 -0 -0 -0 -0 -0 -0 -0 -0 -0 -3
nan nan nan nan nan nan nan nan -0 -0 -0 -0 nan nan nan nan nan nan nan nan nan nan nan nan nan nan nan nan nan nan nan nan nan nan nan nan nan nan nan nan nan nan nan nan nan nan nan nan nan nan nan nan nan nan nan nan nan nan nan nan nan nan -0 -0 -0 -0 -0 -0 -0 -0 nan nan -0 -0 -0 -0 -0 -0 -0 -0 -0 -0 -0 -7 -7 nan
nan nan nan nan nan nan nan -0 -0 -0 -0 -0 -0 -0 nan nan nan nan nan nan nan nan nan nan nan nan nan nan nan nan nan nan nan nan nan nan nan nan nan nan nan nan nan nan nan nan nan nan nan nan nan nan nan nan nan nan nan nan nan nan nan -0 -0 -0 -0 -0 -0 -0 nan nan nan nan nan nan nan -0 -0 -0 -0 -0 -0 -0 -3 nan nan nan
nan nan nan nan nan nan nan -4 -0 -0 -0 -0 -0 -0 -1 nan nan nan nan nan nan nan nan nan nan nan nan nan nan nan nan nan nan nan nan nan nan nan nan nan nan nan nan nan nan nan nan nan nan nan nan nan nan nan nan nan nan nan nan nan nan -1 -0 -0 -0 -0 -0 nan nan nan nan nan nan nan nan nan -0 -0 -0 -0 -0 -0 -14 nan nan nan
nan nan nan nan nan nan nan nan nan nan nan nan nan nan nan nan nan nan nan nan nan nan nan nan nan nan nan nan nan nan nan nan nan nan nan nan nan nan nan nan nan nan nan nan nan nan nan nan nan nan nan nan nan nan nan nan nan nan nan nan nan nan nan nan nan nan nan nan nan nan nan nan nan nan nan nan nan nan -0 -0 -0 -0 -8 -12 -12 -10
nan nan nan nan nan nan nan nan nan nan nan nan nan nan nan nan nan nan nan nan nan nan nan nan nan nan nan nan nan nan nan nan nan nan nan nan nan nan nan nan nan nan nan nan nan nan nan nan nan nan nan nan nan nan nan nan nan nan nan nan nan nan nan nan nan nan nan nan nan nan nan nan nan nan nan nan nan nan nan -0 -0 -0 -0 -12 -12 -12
nan nan nan nan nan nan nan nan nan nan nan nan nan nan nan nan nan nan nan nan nan nan nan nan nan nan nan nan nan nan nan nan nan nan nan nan nan nan nan nan nan nan nan nan nan nan nan nan nan nan nan nan nan nan nan nan nan nan nan nan nan nan nan nan nan nan nan nan nan nan nan nan nan nan nan nan nan nan nan nan nan -0 -0 -3 -3 -9
nan nan nan nan nan nan nan nan nan nan nan nan nan nan nan nan nan nan nan nan nan nan nan nan nan nan nan nan nan nan nan nan nan nan nan nan nan nan nan nan nan nan nan nan nan nan nan nan nan nan nan nan nan nan nan nan nan nan nan nan nan nan nan nan nan nan nan nan nan nan nan nan nan nan nan nan nan nan nan nan nan nan -0 -0 -0 -1
nan nan nan nan nan nan nan nan nan nan nan nan nan nan nan nan nan nan nan nan nan nan nan nan nan nan nan nan nan nan nan nan nan nan nan nan nan nan nan nan nan nan nan nan nan nan nan nan nan nan nan nan nan nan nan nan nan nan nan nan nan nan nan nan nan nan nan nan nan nan nan nan nan nan nan nan nan nan nan nan nan nan -0 -0 -0 -0
nan nan nan nan nan nan nan nan nan nan nan nan nan nan nan nan nan nan nan nan nan nan nan nan nan nan nan nan nan nan nan nan nan nan nan nan nan nan nan nan nan nan nan nan nan nan nan nan nan nan nan nan nan nan nan nan nan nan nan nan nan nan nan nan nan nan nan nan nan nan nan nan nan nan nan nan nan nan nan nan nan nan nan -0 -0 -0
nan nan nan nan nan nan nan nan nan nan nan nan nan nan nan nan nan nan nan nan nan nan nan nan nan nan nan nan nan nan nan nan nan nan nan nan nan nan nan nan nan nan nan nan nan nan nan nan nan nan nan nan nan nan nan nan nan nan nan nan nan nan nan nan nan nan nan nan nan nan nan nan nan nan nan nan nan nan nan nan nan nan nan -0 -0 -0
nan nan nan nan nan nan nan nan nan nan nan nan nan nan nan nan nan nan nan nan nan nan nan nan nan nan nan nan nan nan nan nan nan nan nan nan nan nan nan nan nan nan nan nan nan nan nan nan nan nan nan nan nan nan nan nan nan nan nan nan nan nan nan nan nan nan nan nan nan nan nan nan nan nan nan nan nan nan nan nan nan nan nan nan nan nan
nan nan nan nan nan nan nan nan nan nan nan nan nan nan nan nan nan nan nan nan nan nan nan nan nan nan nan nan nan nan nan nan nan nan nan nan nan nan nan nan nan nan nan nan nan nan nan nan nan nan nan nan nan nan nan nan nan nan nan nan nan nan nan nan nan nan nan nan nan nan nan nan nan nan nan nan nan nan nan nan nan nan nan nan nan nan
nan nan nan nan nan nan nan nan nan nan nan nan nan nan nan nan nan nan nan nan nan nan nan nan nan nan nan nan nan nan nan nan nan nan nan nan nan nan nan nan nan nan nan nan nan nan nan nan nan nan nan nan nan nan nan nan nan nan nan nan nan nan nan nan nan nan nan nan nan nan nan nan nan nan nan nan nan nan nan nan nan nan nan nan nan nan
nan nan nan nan nan nan nan nan nan nan nan nan nan nan nan nan nan nan nan nan nan nan nan nan nan nan nan nan nan nan nan nan nan nan nan nan nan nan nan nan nan nan nan nan nan nan nan nan nan nan nan nan nan nan nan nan nan nan nan nan nan nan nan nan nan nan nan nan nan nan nan nan nan nan nan nan nan nan nan nan nan nan nan nan nan nan
nan nan nan nan nan nan nan nan nan nan nan nan nan nan nan nan nan nan nan nan nan nan nan nan nan nan nan nan nan nan nan nan nan nan nan nan nan nan nan nan nan nan nan nan nan nan nan nan nan nan nan nan nan nan nan nan nan nan nan nan nan nan nan nan nan nan nan nan nan nan nan nan nan nan nan nan nan nan nan nan nan nan nan nan nan nan
nan nan nan nan nan nan nan nan nan nan nan nan nan nan nan nan nan nan nan nan nan nan nan nan nan nan nan nan nan nan nan nan nan nan nan nan nan nan nan nan nan nan nan nan nan nan nan nan nan nan nan nan nan nan nan nan nan nan nan nan nan nan nan nan nan nan nan nan nan nan nan nan nan nan nan nan nan nan nan nan nan nan nan nan nan nan
nan nan nan nan nan nan nan nan nan nan nan nan nan nan nan nan nan nan nan nan nan nan nan nan nan nan nan nan nan nan nan nan nan nan nan nan nan nan nan nan nan nan nan nan nan nan nan nan nan nan nan nan nan nan nan nan nan nan nan nan nan nan nan nan nan nan nan nan nan nan nan nan nan nan nan nan nan nan nan nan nan nan nan nan nan nan
nan nan nan nan nan nan nan nan nan nan nan nan nan nan nan nan nan nan nan nan nan nan nan nan nan nan nan nan nan nan nan nan nan nan nan nan nan nan nan nan nan nan nan nan nan nan nan nan nan nan nan nan nan nan nan nan nan nan nan nan nan nan nan nan nan nan nan nan nan nan nan nan nan nan nan nan nan nan nan nan nan nan nan nan nan nan
nan nan nan nan nan nan nan nan nan nan nan nan nan nan nan nan nan nan nan nan nan nan nan nan nan nan nan nan nan nan nan nan nan nan nan nan nan nan nan nan nan nan nan nan nan nan nan nan nan nan nan nan nan nan nan nan nan nan nan nan nan nan nan nan nan nan nan nan nan nan nan nan nan nan nan nan nan nan nan nan nan nan nan nan nan nan
nan nan nan nan nan nan nan nan nan nan nan nan nan nan nan nan nan nan nan nan nan nan nan nan nan nan nan nan nan nan nan nan nan nan nan nan nan nan nan nan nan nan nan nan nan nan nan nan nan nan nan nan nan nan nan nan nan nan nan nan nan nan nan nan nan nan nan nan nan nan nan nan nan nan nan nan nan nan nan nan nan nan nan nan nan nan
nan nan nan nan nan nan nan nan nan nan nan nan nan nan nan nan nan nan nan nan nan nan nan nan nan nan nan nan nan nan nan nan nan nan nan nan nan nan nan nan nan nan nan nan nan nan nan nan nan nan nan nan nan nan nan nan nan nan nan nan nan nan nan nan nan nan nan nan nan nan nan nan nan nan nan nan nan nan nan nan nan nan nan nan nan nan
nan nan nan nan nan nan nan nan nan nan nan nan nan nan nan nan nan nan nan nan nan nan nan nan nan nan nan nan nan nan nan nan nan nan nan nan nan nan nan nan nan nan nan nan nan nan nan nan nan nan nan nan nan nan nan nan nan nan nan nan nan nan nan nan nan nan nan nan nan nan nan nan nan nan nan nan nan nan nan nan nan nan nan nan nan nan
nan nan nan nan nan nan nan nan nan nan nan nan nan nan nan nan nan nan nan nan nan nan nan nan nan nan nan nan nan nan nan nan nan nan nan nan nan nan nan nan nan nan nan nan nan nan nan nan nan nan nan nan nan nan nan nan nan nan nan nan nan nan nan nan nan nan nan nan nan nan nan nan nan nan nan nan nan nan nan nan nan nan nan nan nan nan
Wind_Speed
1 1 1 2 3 3 3 4 4 4 3 3 3 3 2 2 2 2 3 3 2 2 2 2 4 5 7 10 12 14 14 13 13 12 12 11 11 10 9 8 7 6 5 5 4 4 4 4 4 5 5 6 6 6 6 6 6 6 5 5 6 7 8 9 9 9 9 9 9 9 8 8 7 6 5 5 5 4 4 4 4 4 4 4 4 4
1 1 1 2 3 3 2 4 4 4 3 3 3 3 3 3 2 2 2 2 2 2 2 2 3 5 6 8 11 13 13 13 13 12 12 11 10 10 9 8 7 6 5 5 5 5 5 5 6 6 7 8 8 8 9 9 9 8 8 8 8 9 9 9 9 9 9 9 9 9 8 7 7 6 5 4 4 4 4 4 4 4 4 4 4 4
2 1 1 2 2 2 2 3 3 3 3 4 3 4 4 4 3 2 1 2 2 2 2 2 2 4 5 7 10 12 13 13 13 12 12 11 10 9 9 8 7 6 6 6 6 6 7 7 7 8 8 9 9 10 10 10 10 10 10 10 10 10 10 10 10 10 10 9 9 8 8 7 6 6 5 4 4 4 4 4 4 4 4 4 4 4
2 2 2 2 2 2 2 2 3 3 3 3 4 4 4 3 3 2 1 1 2 2 2 2 2 2 4 5 8 11 13 13 12 12 11 11 10 9 9 8 7 7 7 7 7 7 7 8 8 8 8 8 9 9 9 9 9 9 9 9 10 10 10 10 10 9 9 9 8 8 7 6 6 5 5 4 4 4 4 4 4 4 4 4 4 5
2 2 2 2 2 1 1 2 2 2 3 3 3 3 3 2 2 2 1 2 2 2 2 2 2 2 2 3 6 9 11 12 12 11 11 10 10 9 9 8 8 8 8 8 8 8 8 8 8 8 8 8 8 8 8 8 8 8 8 9 9 9 9 9 9 8 8 8 7 7 6 6 5 5 4 4 4 4 4 3 3 3 4 4 4 5
2 2 2 2 1 1 1 1 2 2 3 2 3 3 2 2 2 2 2 2 2 2 1 2 2 2 2 3 5 8 10 11 11 10 10 10 10 9 9 8 8 8 8 9 8 8 8 8 7 7 7 7 7 7 7 7 7 7 7 8 8 8 8 8 7 7 7 6 6 6 5 5 4 4 4 4 4 4 4 4 4 4 4 4 5 5
2 2 2 2 1 1 1 1 1 2 2 2 2 2 2 2 2 2 2 2 2 1 1 1 2 2 3 3 4 6 8 9 9 9 9 9 9 9 9 9 9 9 9 9 9 9 8 8 7 7 7 7 6 6 7 7 7 7 7 7 7 7 7 6 6 6 6 5 5 5 4 4 4 3 3 3 3 4 4 4 4 4 4 4 5 5
1 2 1 1 1 1 1 1 1 1 2 2 2 2 2 2 2 2 2 2 1 1 1 1 2 2 2 2 2 4 5 6 6 7 7 8 8 8 8 9 9 9 9 9 9 9 8 8 7 7 6 6 6 6 6 6 6 6 6 6 6 6 6 5 5 5 4 4 4 3 3 3 3 2 2 2 3 3 3 4 4 4 4 5 5 5
2 2 2 2 2 2 1 1 1 1 1 2 2 3 3 2 2 2 2 1 1 1 1 1 2 2 1 1 1 2 3 4 4 4 5 5 5 6 7 8 9 9 10 9 9 9 8 8 7 7 6 6 6 6 6 6 6 6 6 6 5 5 5 4 4 3 3 3 2 2 2 2 2 2 1 2 2 2 3 3 3 4 4 4 4 5
3 3 2 2 2 2 2 2 1 1 0 1 2 2 3 3 3 2 2 1 0 0 0 1 2 2 1 1 1 2 3 4 4 4 4 4 5 6 7 7 8 8 10 10 9 9 8 8 7 7 6 6 6 6 7 7 6 6 6 5 5 4 3 2 2 1 1 1 1 1 1 1 1 1 1 1 1 1 2 2 3 3 4 4 4 4
2 2 2 2 2 1 2 2 1 1 0 1 1 2 2 3 3 4 4 3 2 1 0 1 1 2 2 1 1 2 2 3 3 3 3 4 5 7 7 7 8 8 9 9 9 8 8 7 7 7 6 6 7 7 7 7 7 6 6 5 4 3 2 1 1 1 1 1 1 1 0 0 0 0 1 1 1 1 1 1 2 2 3 3 3 3
2 2 2 2 2 2 2 2 2 1 1 2 2 2 3 3 3 4 4 4 3 2 1 1 1 1 2 2 2 2 2 3 3 2 2 2 3 4 5 6 6 7 8 8 8 7 7 7 7 7 6 7 7 7 7 7 6 6 5 4 3 2 2 2 2 2 3 2 2 2 1 1 1 1 1 1 1 1 1 1 1 2 2 3 3 3
2 2 2 2 2 2 2 2 2 2 2 3 4 4 4 4 3 3 3 4 4 3 2 1 1 1 1 0 1 2 2 2 3 2 2 2 2 2 3 3 4 5 5 5 5 5 5 6 6 6 6 7 7 7 7 7 6 6 5 4 3 2 2 3 3 4 4 3 3 2 2 1 1 1 1 1 1 1 1 1 1 1 2 2 2 2
2 2 2 2 2 3 3 3 3 4 4 4 4 4 4 4 3 3 3 3 3 3 3 2 1 1 1 1 0 1 2 3 3 2 2 2 2 3 3 4 4 4 4 4 3 4 5 4 4 4 5 6 7 7 7 7 6 5 4 4 3 3 3 4 4 4 4 4 4 3 2 2 2 2 2 2 2 1 1 1 1 1 1 1 2 2
3 3 3 3 3 3 3 4 4 5 5 4 3 3 3 3 4 4 4 4 4 4 3 3 2 1 0 0 1 1 2 3 3 3 3 3 2 2 3 4 4 3 3 3 3 4 5 4 3 3 4 5 6 6 7 6 6 5 5 4 4 4 4 4 5 5 5 4 4 3 3 2 2 2 2 2 1 1 1 1 1 1 0 1 2 2
4 4 4 4 4 4 4 4 5 4 4 4 3 3 4 4 5 5 4 4 4 4 4 3 2 2 1 1 1 1 2 3 4 4 4 4 3 2 2 3 3 3 3 3 3 3 3 3 3 3 3 5 6 6 6 6 6 6 5 4 4 4 5 5 5 5 5 5 4 4 3 3 2 2 2 2 1 1 1 1 1 1 0 1 1 2
4 4 4 4 4 4 4 5 5 5 4 4 4 4 4 5 5 4 4 4 4 4 4 4 3 3 2 2 2 3 3 3 4 5 5 4 3 2 1 2 3 3 3 3 2 3 3 2 2 2 3 4 5 6 6 6 6 5 5 5 5 5 5 5 5 5 5 5 4 4 3 3 3 2 2 1 1 1 1 1 1 1 0 1 1 1
3 4 4 4 4 4 4 4 4 4 4 4 4 4 4 4 4 4 4 4 4 4 4 4 4 3 3 3 4 4 4 4 4 4 5 4 3 2 1 1 1 2 3 3 2 2 3 2 2 2 3 4 5 5 5 6 6 6 5 5 5 5 6 6 6 6 6 5 5 4 4 4 3 3 2 1 1 1 1 1 1 1 1 1 1 1
3 3 3 3 3 3 3 4 4 4 4 4 4 4 4 4 4 4 4 4 4 5 5 4 4 3 3 3 4 5 5 4 4 4 4 4 3 3 2 1 1 2 2 3 3 3 2 2 2 3 4 5 5 6 6 6 6 6 6 6 6 6 6 6 6 6 6 5 5 4 4 4 3 3 3 2 2 1 1 1 1 1 1 1 1 1
3 3 3 3 3 3 3 4 5 5 5 5 5 5 4 4 4 4 4 4 4 4 4 3 4 4 3 3 4 5 6 5 4 3 4 3 3 3 2 3 2 2 2 2 2 2 2 2 2 3 4 5 5 6 6 6 7 7 7 6 6 6 6 6 6 6 6 5 5 5 4 4 4 4 3 3 2 2 2 2 1 1 0 1 1 1
3 4 4 3 3 3 3 4 4 5 6 6 5 5 5 5 5 5 4 4 4 4 4 4 4 3 2 2 4 5 7 6 5 4 3 3 2 2 2 3 3 3 3 2 2 3 2 2 2 2 3 5 5 6 7 7 7 7 7 7 7 6 6 6 6 6 6 5 5 5 4 4 4 4 3 3 3 2 2 2 1 1 0 0 0 0
2 3 3 3 3 3 3 4 5 6 7 7 6 6 5 5 5 5 5 5 5 4 4 2 1 2 2 2 3 4 6 6 5 4 3 3 3 3 2 2 3 3 3 2 2 2 2 2 2 2 4 5 6 6 7 7 7 7 7 7 7 7 7 7 7 6 6 6 5 5 5 5 4 4 4 3 3 2 2 2 1 1 1 0 0 1
2 2 2 3 3 2 2 3 5 6 7 7 6 6 5 5 5 5 5 5 4 3 3 3 3 3 3 3 2 2 2 3 3 3 3 3 3 3 2 2 2 3 3 2 2 3 2 2 2 2 4 6 6 7 7 7 7 7 7 7 7 7 7 7 7 7 7 6 6 6 5 5 5 4 4 3 3 3 2 2 2 1 1 1 1 1
3 3 2 1 1 1 1 2 4 5 5 5 4 4 4 4 4 4 4 4 3 3 3 3 3 3 3 3 2 1 0 1 1 2 3 3 2 3 3 2 3 3 3 2 2 3 2 2 2 2 3 5 6 6 6 6 6 6 6 6 6 7 7 7 7 7 7 7 6 6 6 5 5 5 5 4 4 3 3 2 2 2 2 2 2 2
2 1 1 1 1 2 2 3 4 5 5 5 4 3 3 4 4 3 3 4 4 4 4 4 4 3 3 3 2 2 1 1 1 1 2 2 2 3 2 2 3 3 2 2 2 2 2 2 2 2 2 3 5 5 5 5 5 6 6 6 7 7 7 7 8 8 8 7 7 7 6 6 6 5 5 5 5 5 4 4 3 3 2 2 2 2
1 1 2 2 2 3 3 5 6 8 8 7 5 4 4 4 4 4 4 4 4 5 5 4 4 4 3 3 3 3 2 1 1 1 1 2 2 3 2 2 2 2 2 2 2 2 2 2 2 2 2 3 4 5 5 5 5 5 6 6 7 7 8 8 8 8 8 8 7 7 6 6 6 5 5 5 5 5 5 5 4 4 3 3 3 3
1 2 2 2 3 3 4 6 8 11 12 11 9 8 6 6 5 5 5 5 5 5 5 5 4 4 3 3 3 3 3 2 2 1 1 1 2 3 2 2 2 2 3 2 2 2 3 3 3 3 2 2 3 4 5 5 5 5 6 7 8 8 8 9 9 9 8 8 7 6 5 5 5 5 5 5 5 5 5 5 4 4 3 3 3 3
3 3 3 3 4 5 6 7 9 11 13 13 13 12 9 7 6 6 6 6 6 6 5 5 5 4 3 3 3 3 3 3 2 2 1 1 2 2 2 2 2 2 3 2 2 2 2 2 2 2 3 3 3 3 4 5 5 6 7 8 9 9 9 9 9 8 8 7 6 5 5 4 4 4 4 4 4 4 5 4 4 4 3 3 2 2
4 4 4 5 5 6 7 8 9 11 13 14 14 13 10 6 6 6 5 5 6 6 5 5 4 4 3 3 3 2 3 3 3 3 2 1 2 2 2 2 2 2 2 2 2 1 1 1 2 2 2 3 3 3 3 4 4 5 6 8 9 9 9 9 8 8 8 7 6 5 4 3 3 3 3 3 4 4 4 4 4 4 3 3 2 2
5 5 5 5 5 6 6 6 7 9 12 13 14 12 8 5 4 4 4 5 6 6 5 5 4 3 3 3 3 2 2 3 3 3 3 2 2 2 3 2 2 2 2 2 2 1 1 1 2 2 2 3 3 2 2 3 3 3 4 6 7 8 8 8 8 8 7 6 5 4 3 3 2 2 2 3 3 4 4 4 4 3 2 2 2 2
5 5 5 5 5 5 5 4 5 7 9 11 11 9 6 4 3 3 3 5 5 5 5 4 4 4 4 4 3 2 2 3 4 4 4 3 2 3 3 3 3 2 2 2 2 2 2 2 2 2 2 2 2 2 2 2 2 2 2 3 4 5 7 7 7 7 6 6 5 4 3 3 2 2 3 3 3 4 4 4 4 3 2 2 2 2
5 4 4 4 4 4 4 4 4 4 5 6 6 5 3 2 1 1 2 3 4 4 3 3 3 3 4 3 3 2 2 3 4 5 5 3 2 2 3 3 3 2 2 1 1 1 2 2 2 2 2 2 2 2 2 2 2 2 2 2 2 3 6 6 6 6 5 5 4 4 4 3 3 3 4 4 4 5 5 5 5 4 2 2 2 2
4 3 3 3 4 4 4 4 4 4 4 3 3 2 2 1 1 1 1 1 2 2 3 3 3 3 3 3 2 2 2 3 5 7 6 3 2 2 3 3 3 3 2 1 1 0 0 1 2 2 2 2 2 2 2 2 2 2 2 2 2 3 4 5 4 4 4 4 4 4 4 4 4 5 5 5 5 6 6 6 6 5 4 3 2 2
4 4 4 3 3 3 4 4 4 4 3 3 3 2 2 2 2 2 2 2 2 2 2 3 3 3 3 3 2 2 2 3 5 7 7 4 3 2 3 3 3 3 3 2 1 0 1 1 2 2 2 2 2 2 2 2 2 2 2 2 2 3 3 4 3 3 4 4 3 3 4 4 5 5 5 6 6 7 7 7 7 7 7 5 3 2
4 4 4 4 4 3 4 4 4 4 3 3 3 3 2 2 2 2 2 3 3 3 3 2 2 2 3 3 3 3 3 4 6 7 6 4 3 3 3 3 3 4 3 3 2 2 1 2 2 2 2 2 2 2 2 2 2 2 1 1 1 2 3 3 3 3 3 3 3 2 3 3 3 4 5 5 6 7 7 8 8 9 9 8 6 4
5 5 5 4 4 4 4 4 4 4 4 3 3 3 3 3 2 2 2 3 3 4 4 4 3 3 2 1 2 3 4 4 6 7 6 4 3 3 3 3 3 4 4 3 3 2 2 2 2 3 3 2 2 2 2 2 2 2 2 1 1 1 2 2 2 2 2 2 2 2 2 2 3 3 3 5 5 6 6 7 8 9 9 9 9 7
5 5 5 5 5 5 5 4 4 4 4 3 3 3 3 3 3 3 3 3 3 4 4 5 5 5 4 3 2 3 4 5 5 6 5 4 3 3 2 3 3 4 4 3 3 3 3 2 2 2 2 2 2 2 2 2 2 2 2 2 2 2 2 2 2 2 2 2 2 2 2 2 2 2 3 4 4 4 5 6 7 8 9 9 9 9
5 5 5 5 5 5 5 4 4 4 4 4 4 3 3 4 4 4 3 3 4 4 4 4 5 5 7 6 5 5 5 5 6 5 4 3 2 2 2 3 3 3 3 3 3 3 3 3 3 3 2 2 2 2 3 3 3 3 3 3 3 3 2 2 2 2 2 2 3 3 3 2 2 2 2 3 3 2 3 4 5 7 8 8 9 9
5 5 5 5 5 5 4 5 5 4 4 4 4 4 4 4 5 4 4 4 4 5 5 5 5 5 6 6 7 7 6 6 5 5 4 3 2 2 3 3 3 3 2 2 2 3 3 3 3 3 3 2 2 2 3 3 3 3 3 3 2 3 3 3 3 3 3 3 3 3 3 2 2 2 2 2 2 2 2 3 4 5 5 4 5 7
5 5 5 5 5 5 4 4 4 4 5 5 5 5 5 5 5 5 5 5 5 5 6 5 5 5 5 6 6 6 6 5 5 4 4 3 2 2 2 3 3 3 2 2 2 2 2 2 2 2 3 2 2 2 3 3 3 3 4 3 2 3 3 3 3 3 3 3 3 3 2 2 2 2 2 2 2 2 2 2 3 3 4 3 3 4
5 5 5 5 4 4 4 4 4 5 5 5 5 4 4 4 4 4 4 4 4 4 4 5 5 5 5 5 5 5 5 4 4 4 3 3 2 2 2 2 3 3 3 2 1 1 1 1 1 1 2 2 2 3 3 3 4 4 5 3 3 3 3 4 4 4 3 3 3 2 2 2 2 3 3 3 3 3 3 2 2 2 3 3 3 3
6 5 5 4 4 3 3 4 5 6 6 5 5 4 4 4 4 4 4 4 4 3 3 3 3 4 4 4 4 4 4 4 4 4 3 3 3 2 2 2 2 2 2 2 2 1 1 1 1 1 1 1 2 2 2 3 3 4 4 3 3 2 3 4 4 4 3 3 2 2 3 2 2 3 3 3 3 3 3 3 3 3 3 2 2 2
6 5 5 4 4 5 5 6 6 5 5 5 4 4 4 4 4 5 5 4 4 4 3 3 3 4 4 3 3 3 3 3 3 3 3 3 3 3 2 2 3 3 2 2 2 2 1 1 1 1 1 1 1 2 2 3 3 3 3 3 3 2 1 2 3 3 3 3 3 2 2 2 2 2 2 2 2 2 2 3 3 4 4 2 2 2
5 4 4 4 5 5 5 5 4 4 5 5 5 4 4 4 5 5 5 4 4 4 3 3 3 3 3 3 3 2 2 2 3 3 3 3 3 3 3 2 2 2 2 2 2 2 2 1 1 1 1 0 1 1 2 2 3 3 3 4 3 3 2 2 3 3 2 2 3 3 3 2 2 2 1 1 1 1 2 2 2 3 4 3 3 3
4 4 4 5 5 5 5 5 5 5 5 4 4 4 4 4 4 4 4 4 4 4 3 3 3 3 3 3 3 3 2 2 2 2 2 3 3 3 3 2 1 1 1 1 1 2 2 2 2 1 1 1 1 1 2 2 2 3 3 4 4 3 2 2 3 3 3 3 3 3 3 2 2 1 1 1 1 2 2 3 3 3 3 3 3 3
4 4 5 5 5 5 6 5 5 5 4 4 4 4 4 4 4 4 4 4 4 4 4 3 3 3 3 4 4 3 3 3 2 2 2 2 1 1 2 2 1 1 0 1 1 1 1 1 2 2 2 1 2 2 2 2 2 2 3 3 3 3 2 2 2 3 3 3 3 3 3 3 2 1 1 2 2 2 3 3 3 4 4 3 4 4
5 5 5 5 5 5 5 5 5 5 5 5 4 4 4 4 4 4 4 4 4 4 4 3 3 3 3 4 4 4 4 4 3 3 2 2 2 1 1 1 1 1 1 1 1 1 1 1 1 0 2 2 2 3 3 3 3 3 3 3 3 3 3 2 2 2 3 3 3 3 3 3 2 1 2 2 2 3 3 3 4 4 4 4 4 4
6 6 6 6 5 5 5 5 5 5 5 5 4 4 4 4 4 4 4 4 4 4 4 4 4 3 3 4 4 5 5 5 5 4 3 3 3 2 2 1 1 1 1 1 1 2 2 2 2 2 1 2 2 3 3 3 3 3 3 3 3 3 3 3 3 3 3 2 2 3 3 3 2 2 2 2 2 2 3 3 3 3 3 4 4 4
6 6 6 6 6 6 6 6 6 6 6 5 5 4 4 5 5 5 4 4 4 4 4 4 4 4 3 3 4 4 5 5 5 5 4 4 3 3 3 2 2 1 1 0 0 1 1 2 2 3 3 3 2 2 3 3 3 3 3 2 2 2 2 2 3 3 3 3 3 3 3 2 2 2 2 2 2 2 2 2 3 3 3 3 4 4
6 6 6 6 6 6 6 6 6 6 6 6 6 5 5 4 4 4 3 4 4 4 4 4 4 4 4 3 4 4 4 4 4 5 5 4 4 4 4 4 3 3 2 2 1 1 1 2 3 4 6 6 5 4 2 2 2 2 2 2 2 2 2 2 2 3 3 3 3 3 2 1 1 1 1 1 2 2 2 2 2 3 3 3 4 4
6 6 6 6 6 6 6 6 6 6 6 6 6 6 5 5 4 4 3 4 4 4 4 4 4 4 4 4 4 4 4 4 4 5 5 5 5 5 5 5 4 4 3 3 3 2 2 2 2 3 6 9 9 8 4 3 2 2 2 2 2 2 2 2 2 3 3 3 3 3 2 1 1 1 1 2 2 2 2 2 2 3 3 3 4 4
Wind_Direction
91 107 118 138 143 152 172 174 172 167 161 152 144 134 114 90 72 59 57 58 62 70 85 112 127 134 138 142 143 143 143 142 142 141 140 138 137 136 135 135 135 136 140 144 148 150 149 147 143 138 132 128 125 121 118 116 114 112 110 110 109 109 109 109 108 107 103 100 96 92 87 82 75 67 57 50 45 42 40 37 34 31 28 18 2 343
120 114 130 153 155 159 173 180 177 170 162 156 150 142 131 119 101 73 52 49 49 54 66 98 123 133 137 141 143 144 144 143 142 140 139 138 137 137 136 137 139 144 149 152 151 146 135 121 113 108 103 98 96 94 89 88 87 85 83 84 85 85 87 88 88 87 86 85 83 80 77 73 67 59 51 43 36 32 30 27 23 18 13 3 351 336
155 149 164 168 169 169 171 180 178 170 159 154 150 146 141 135 124 101 71 52 41 37 37 57 110 130 136 141 145 146 145 143 142 141 140 139 139 139 140 143 147 152 158 159 155 146 133 121 113 106 100 96 93 90 86 84 82 80 79 77 77 76 76 75 75 74 73 72 71 70 67 64 58 51 41 33 26 22 20 18 13 8 1 352 340 328
165 168 171 172 177 179 170 170 165 157 145 140 142 145 149 142 128 107 82 69 55 42 26 25 61 109 127 137 144 146 146 144 143 142 142 143 143 144 146 150 154 160 165 164 158 149 138 127 119 112 106 101 97 94 90 87 85 83 81 78 77 75 74 72 71 69 68 66 64 62 60 56 50 43 33 23 15 10 7 5 0 355 347 338 328 319
173 175 167 163 167 169 148 138 134 130 121 122 128 134 139 126 114 101 85 76 67 54 33 24 37 67 101 122 139 144 145 144 144 144 145 146 148 149 152 156 161 165 168 166 161 153 143 134 126 119 112 107 103 99 96 93 90 87 85 83 80 78 76 73 71 69 66 64 60 57 53 49 43 35 25 13 3 356 350 347 341 335 329 322 315 309
171 170 157 152 143 116 86 95 109 116 114 108 104 98 91 91 95 97 94 84 75 63 43 28 35 49 72 95 129 140 142 143 144 146 148 150 151 154 157 162 166 169 169 166 161 154 146 138 132 125 119 113 109 106 103 100 97 94 91 88 85 82 79 75 72 69 66 62 59 54 48 42 36 28 17 5 354 345 337 331 323 316 309 304 300 297
153 142 132 122 107 88 74 82 109 123 126 116 101 87 77 78 82 85 89 91 89 84 67 48 42 48 60 80 113 130 136 140 142 146 149 151 154 158 162 167 169 170 169 165 160 154 148 142 136 131 125 122 119 116 114 110 105 101 97 93 88 85 81 76 72 68 64 61 57 52 45 39 32 23 13 1 350 340 331 321 312 302 294 289 286 284
158 134 128 123 111 98 83 81 109 133 137 135 129 119 107 91 81 75 73 78 91 105 110 84 66 57 54 67 95 117 129 134 139 144 149 152 156 161 167 171 172 171 167 163 158 154 149 145 140 136 133 131 130 127 124 118 113 107 101 96 91 86 81 76 71 66 62 58 55 50 44 37 29 21 11 0 349 339 329 318 307 296 287 281 277 274
169 155 158 152 143 134 129 120 113 120 136 144 146 144 140 130 116 97 80 73 76 104 134 123 109 91 68 60 80 111 128 136 141 147 151 152 157 163 170 174 173 170 166 162 158 155 151 148 145 143 142 141 139 136 131 124 119 113 107 101 95 89 83 78 73 67 61 59 54 48 42 33 26 16 8 359 349 338 328 316 305 296 288 281 276 271
160 158 159 157 151 147 148 145 133 104 84 144 150 150 151 148 146 140 132 125 107 36 63 140 133 126 110 92 99 120 128 132 133 136 143 152 162 168 173 175 173 168 164 162 160 157 155 153 151 151 151 150 147 142 135 130 125 120 115 110 104 98 91 87 83 81 78 75 66 54 38 25 10 358 350 343 334 326 317 309 303 299 294 288 281 274
152 153 151 147 142 134 128 128 125 118 100 124 130 140 156 160 160 160 162 163 164 162 2 125 131 132 136 138 136 127 119 111 105 104 110 141 160 168 171 171 168 165 163 162 161 160 158 157 158 158 159 157 152 146 140 136 132 129 125 122 118 115 116 129 162 188 194 191 188 191 198 260 290 292 286 278 277 279 284 293 298 301 300 296 291 285
155 152 147 140 132 121 107 104 106 117 139 143 152 166 183 183 178 173 171 169 166 162 154 104 74 95 132 145 145 135 116 108 101 93 89 117 143 155 162 163 162 161 161 160 159 158 158 160 162 164 166 162 157 152 148 144 142 140 138 137 139 147 171 201 213 214 209 204 200 198 201 216 238 255 261 254 250 248 247 259 280 294 301 301 299 297
153 147 143 141 141 141 132 129 135 151 177 183 185 186 186 182 180 179 174 166 161 157 147 122 72 33 29 106 141 142 129 121 117 113 110 118 131 141 148 153 157 159 160 159 156 155 156 160 164 168 171 167 163 160 157 155 154 154 155 159 168 186 209 220 221 217 210 203 198 197 196 206 224 241 249 247 243 238 229 226 241 271 293 300 304 306
157 151 151 157 162 165 162 162 168 178 191 196 196 191 178 166 165 168 164 154 148 143 135 126 113 78 15 345 282 154 142 133 129 128 135 145 153 155 156 158 161 163 163 164 161 158 158 159 161 168 174 173 169 166 167 166 167 170 175 184 198 213 224 225 222 215 208 200 195 192 194 204 219 233 241 240 236 229 216 206 210 235 278 301 312 320
170 167 172 178 180 180 177 180 185 190 194 196 193 180 151 151 159 165 163 152 144 137 133 133 132 134 152 246 256 208 163 148 146 148 157 159 164 169 172 168 167 168 172 172 164 158 160 163 164 167 177 181 178 175 177 179 182 187 192 204 215 224 227 225 219 212 203 196 192 190 193 202 214 224 232 232 229 219 204 191 186 195 267 315 328 338
180 178 184 188 189 187 185 186 190 193 192 189 182 170 157 161 167 170 166 153 144 141 144 146 150 163 190 196 214 220 200 172 164 163 168 165 165 179 202 181 171 167 176 176 162 149 152 163 167 170 178 186 187 186 187 190 193 198 204 214 222 227 228 222 215 206 198 192 190 191 194 201 210 217 222 223 218 206 186 169 163 153 101 349 351 355
187 187 190 191 191 191 186 186 188 189 183 180 177 173 169 169 169 169 163 150 146 149 158 159 164 173 184 186 201 213 216 193 178 172 173 168 165 172 230 204 180 168 173 178 159 141 145 158 163 168 180 186 187 188 192 199 204 208 213 219 223 225 223 217 209 200 193 190 190 192 195 199 204 208 211 210 202 187 166 155 146 135 113 47 21 16
193 193 193 194 192 188 180 181 183 184 177 174 171 168 168 167 166 165 161 155 156 161 166 170 176 180 177 182 188 193 200 202 189 177 176 170 161 155 195 223 198 177 169 171 156 140 143 152 158 167 178 185 188 192 199 208 213 216 219 222 222 221 218 211 204 196 191 190 191 193 195 196 198 199 199 197 194 182 165 159 152 145 134 93 55 39
199 195 196 198 192 182 173 177 180 180 177 172 166 161 162 164 166 167 167 165 167 170 171 177 182 188 191 186 173 169 182 199 194 181 182 172 157 148 170 189 198 190 172 168 153 136 131 134 151 166 177 182 189 196 204 211 216 218 220 220 219 217 214 207 201 195 192 191 193 194 194 193 192 192 193 194 193 190 182 179 176 169 149 93 63 48
205 203 203 201 190 179 177 182 183 181 178 169 163 160 164 166 168 171 174 174 175 177 174 177 184 192 197 166 149 152 169 184 191 190 190 168 150 146 167 175 183 188 183 170 141 119 121 120 133 156 175 183 191 199 206 210 213 215 216 216 215 213 210 205 200 195 193 193 193 193 193 191 189 188 190 193 197 200 199 197 196 188 149 77 58 46
211 209 207 202 196 189 184 184 182 178 170 159 156 159 166 167 171 175 176 175 177 180 182 185 185 180 159 129 138 153 166 176 184 191 189 165 145 142 164 176 180 184 192 167 132 115 123 127 133 153 174 186 193 200 205 209 211 212 212 213 212 210 208 204 200 197 194 193 193 193 193 190 188 187 188 194 199 204 206 207 208 202 160 93 66 46
225 216 205 203 204 200 185 177 174 169 158 155 159 166 172 172 175 177 175 173 176 180 184 172 126 75 67 96 127 152 166 177 184 187 182 171 155 147 157 173 179 183 193 166 134 119 130 136 146 168 183 189 194 199 204 207 209 209 210 210 210 209 208 204 201 198 195 193 192 192 193 190 188 187 189 195 202 208 212 216 219 220 212 203 216 227
246 240 220 207 204 198 174 164 162 159 154 160 167 174 174 174 174 174 171 171 170 161 130 100 79 65 63 75 89 123 168 189 192 190 183 182 164 147 146 162 173 181 195 158 133 128 140 143 153 171 184 189 193 198 202 205 207 208 209 210 210 210 209 206 202 198 195 192 191 191 193 191 190 190 192 196 202 209 217 224 230 235 241 242 244 248
243 249 253 228 183 142 114 135 143 148 153 161 167 170 166 167 166 163 160 153 137 116 101 103 101 96 87 90 94 109 212 233 224 208 192 185 158 134 136 156 171 180 184 140 126 131 142 145 150 159 172 184 190 195 199 203 206 208 210 212 213 213 211 207 203 199 195 192 191 192 193 194 194 195 195 197 200 205 212 219 227 235 243 247 256 262
257 277 332 4 59 89 107 124 138 145 150 152 148 140 135 136 133 128 123 119 116 116 122 125 128 129 128 132 141 160 196 230 243 223 197 174 136 118 133 159 172 173 161 125 119 130 142 147 149 152 159 176 185 191 197 202 207 211 214 216 217 216 214 209 204 199 195 193 193 194 196 198 199 200 200 200 201 202 205 210 214 220 227 237 249 259
359 21 40 54 74 96 119 135 145 150 153 150 144 136 129 126 123 120 121 128 135 139 144 151 157 158 150 152 158 165 174 196 234 245 218 158 127 118 133 162 171 161 135 118 122 139 153 154 153 154 159 169 182 189 196 204 211 217 220 222 222 220 216 210 204 199 195 193 194 196 199 202 205 207 208 208 207 206 206 208 208 210 215 225 237 248
81 86 98 114 125 135 145 152 155 156 157 154 152 148 143 139 138 142 153 157 158 158 162 171 171 164 153 161 162 161 158 175 201 236 251 148 128 127 137 158 160 143 124 123 137 157 167 161 157 154 155 159 173 186 197 205 214 222 227 227 225 222 216 210 203 197 192 191 192 195 199 205 209 212 214 214 215 215 214 213 212 212 215 220 230 240
127 132 141 150 157 163 167 168 166 164 162 159 157 155 154 153 157 164 171 167 165 166 175 179 175 166 160 166 158 148 149 169 183 198 222 156 130 129 132 150 153 142 127 122 132 151 166 161 153 148 149 153 165 179 193 203 215 224 229 227 224 220 213 206 198 192 187 185 186 189 195 203 210 215 218 218 219 219 219 219 218 217 218 223 228 231
130 134 140 149 158 166 172 173 173 170 167 164 162 162 163 166 171 174 172 165 165 172 183 184 178 166 154 148 137 132 151 171 176 175 176 155 130 122 126 144 154 150 133 123 122 135 164 169 158 150 149 156 161 171 184 198 212 223 227 223 219 213 206 197 189 183 179 178 178 181 187 198 209 219 224 224 224 223 222 221 220 219 219 223 228 231
136 135 135 143 151 158 165 170 172 172 171 168 167 168 172 177 182 179 165 164 169 177 184 184 175 157 140 129 126 137 174 176 169 162 162 156 141 130 130 148 160 163 150 138 136 147 175 176 169 162 157 159 161 166 177 193 205 216 222 216 210 202 193 186 180 176 173 172 173 176 182 194 210 226 236 237 235 231 227 223 221 218 216 221 227 230
151 147 143 144 147 150 153 157 163 168 170 170 170 172 175 185 192 184 165 169 175 181 183 179 165 150 142 139 148 165 184 170 162 160 164 164 151 139 141 153 166 177 177 162 156 157 164 165 163 162 161 163 166 169 180 188 195 201 204 197 190 182 175 171 169 168 167 169 172 177 186 200 216 231 243 246 246 241 235 230 225 221 217 222 227 228
154 149 146 147 147 147 145 147 151 157 164 167 168 167 165 177 188 176 161 168 174 177 174 162 151 146 150 154 161 165 159 150 158 164 168 164 148 137 147 154 163 176 196 207 199 173 158 151 152 156 161 167 170 174 182 188 191 190 187 170 156 150 155 157 159 161 164 169 176 185 197 209 222 233 241 245 246 244 241 237 232 228 223 226 230 232
147 145 143 145 145 145 144 144 145 148 152 153 149 138 122 100 74 70 91 119 138 147 146 141 140 143 151 150 141 124 113 135 159 167 169 158 142 139 150 153 157 164 174 201 279 309 105 123 132 143 157 165 168 170 177 185 190 191 186 168 152 146 153 158 162 168 174 178 186 195 205 214 222 230 236 240 242 243 242 239 236 233 229 231 235 237
149 149 149 147 146 145 143 141 140 140 140 137 131 122 107 93 77 69 66 65 70 84 106 124 136 144 151 143 125 110 113 139 161 168 168 155 142 143 150 154 156 158 159 166 173 138 71 100 118 132 144 156 162 167 172 180 185 189 193 179 163 155 158 168 176 184 188 187 191 199 205 211 219 226 231 234 237 239 239 238 236 234 233 233 234 235
159 161 160 157 154 150 145 141 138 136 136 134 132 129 124 116 102 87 75 68 65 64 68 83 102 124 141 143 140 137 138 148 163 168 166 155 145 142 148 158 159 159 161 166 165 154 129 125 133 138 138 145 158 169 174 173 172 176 190 206 188 169 160 169 178 187 191 190 193 197 200 204 211 218 224 229 232 234 236 237 236 235 235 234 234 233
169 170 169 165 162 158 154 148 144 142 140 139 137 134 132 123 111 96 81 74 72 69 65 58 54 53 62 97 125 134 139 146 159 166 165 156 145 141 147 159 162 161 162 166 166 161 148 143 146 150 149 151 157 165 168 163 160 163 180 206 217 201 171 168 175 185 191 196 201 205 204 202 202 208 216 225 229 233 236 238 238 238 237 237 236 235
175 175 173 170 168 165 161 157 153 150 147 144 140 133 125 114 105 95 84 78 77 78 76 69 61 54 47 51 72 101 123 136 149 158 158 149 142 141 144 153 159 162 163 164 164 160 151 146 151 160 167 169 166 160 155 156 160 169 185 197 205 206 188 174 176 185 195 210 216 218 216 208 204 204 213 222 227 231 237 240 241 240 240 240 239 239
178 178 175 172 170 168 165 162 160 157 153 146 137 125 112 104 99 94 89 83 82 83 84 79 72 64 57 62 70 85 106 124 135 140 137 132 131 133 133 139 151 159 161 159 157 155 152 150 156 167 184 188 173 153 144 154 166 178 188 191 195 198 194 185 182 186 197 214 223 227 226 216 207 202 209 212 212 217 229 235 237 237 238 238 239 240
181 179 175 173 171 169 168 166 162 155 144 133 123 113 105 101 98 95 90 85 82 82 83 85 82 74 64 66 72 80 93 104 112 113 108 103 106 116 126 133 142 149 148 145 148 152 156 159 164 171 178 181 166 148 139 152 165 174 177 178 188 198 201 191 187 188 196 207 218 224 226 217 205 196 201 198 197 202 212 220 223 224 223 224 231 236
181 179 175 174 173 173 171 162 149 135 125 117 113 110 110 108 104 98 91 87 85 85 87 87 85 79 69 67 69 74 80 90 95 94 83 73 76 98 120 129 134 136 132 130 140 156 167 173 177 177 173 168 159 151 143 155 166 170 168 168 182 197 199 192 188 188 190 197 205 212 215 211 205 201 201 199 199 203 209 214 216 212 205 198 204 219
181 179 176 173 170 163 145 128 120 118 118 119 119 121 124 122 117 110 103 96 93 92 95 93 88 81 72 65 62 61 60 64 71 72 57 43 46 67 102 115 123 126 127 128 137 159 181 191 196 191 177 163 153 149 151 162 171 174 173 175 180 183 183 184 183 182 184 189 194 201 207 213 214 212 208 206 206 207 212 214 215 212 202 191 190 193
181 179 175 166 152 133 113 109 112 117 121 125 130 134 137 136 133 129 123 117 113 111 112 110 105 98 89 79 69 59 51 54 58 58 49 34 32 45 80 101 111 120 126 131 141 164 197 211 212 204 186 162 153 153 158 164 171 176 181 182 178 173 171 178 174 168 169 174 181 192 206 214 218 217 213 210 209 209 210 213 217 218 213 206 201 202
181 177 165 145 130 121 117 117 120 125 132 136 140 142 144 143 140 137 133 130 130 131 129 126 122 117 112 105 95 80 64 60 63 64 60 40 28 30 58 93 106 115 125 133 145 163 194 218 229 227 208 171 162 163 165 163 166 173 183 186 182 177 182 175 161 152 156 165 171 180 196 210 217 218 212 208 205 203 204 211 219 224 224 220 219 221
173 158 135 125 122 121 123 127 133 140 144 146 146 145 145 146 143 140 136 135 136 137 138 136 131 125 122 123 122 116 101 82 67 60 59 50 37 26 27 65 95 112 124 137 150 158 168 197 222 235 238 187 182 186 186 174 172 174 180 184 187 190 193 167 150 146 156 169 175 179 189 203 211 215 213 213 214 213 208 206 211 218 223 224 225 225
148 132 123 125 128 132 137 142 145 147 149 148 146 146 147 149 148 145 141 139 139 142 144 145 142 139 140 143 142 137 130 119 102 85 74 61 46 33 20 27 53 103 136 160 171 172 167 180 193 204 199 192 206 211 209 197 189 184 182 182 187 194 204 173 151 149 162 174 179 180 182 182 182 186 202 221 228 227 221 214 211 211 213 214 218 221
137 132 132 134 138 144 149 149 149 148 148 146 145 145 147 150 149 147 145 142 142 145 151 154 155 155 158 156 153 151 149 149 146 137 121 99 77 54 30 17 15 19 111 215 224 222 206 193 186 180 170 182 203 216 219 211 205 200 192 184 182 187 198 187 170 163 164 172 175 171 160 149 147 160 204 224 228 228 225 219 214 209 207 205 209 213
144 142 142 144 146 149 151 150 150 150 151 149 147 146 146 149 150 150 147 145 145 148 153 159 165 169 168 162 159 158 159 162 162 159 150 137 129 120 107 66 28 5 348 329 313 310 318 335 326 229 181 183 193 204 212 210 210 208 202 188 180 180 187 191 184 174 166 171 164 149 132 127 138 175 211 224 230 230 226 220 215 211 207 205 205 208
150 148 148 149 150 151 153 153 154 154 154 151 148 146 149 155 158 157 150 149 149 151 156 164 173 178 176 168 164 162 162 164 163 162 158 153 147 142 137 130 115 69 6 345 334 332 339 345 336 312 255 213 201 197 198 198 201 204 203 191 183 181 186 186 178 168 161 158 143 128 124 133 156 190 213 224 230 232 228 220 214 210 207 206 207 208
153 153 153 153 154 156 157 157 158 158 157 152 148 146 151 159 162 161 153 152 154 157 162 168 174 177 177 170 164 161 161 161 160 158 157 155 152 148 146 145 144 142 142 157 293 301 305 304 286 270 259 249 235 218 203 195 193 194 195 190 185 183 185 179 168 158 149 135 122 117 126 145 172 199 218 230 240 244 243 231 220 211 206 204 206 209
156 156 156 156 158 159 159 160 160 160 158 153 149 148 151 157 160 159 153 153 156 160 166 170 173 175 176 168 164 162 163 162 159 156 155 155 154 153 153 154 155 156 156 165 184 207 233 253 251 246 241 238 235 232 227 211 198 191 188 188 185 181 181 173 162 153 144 132 123 118 124 146 186 219 232 239 249 255 259 253 241 226 211 203 203 206
160 159 159 160 160 160 160 160 161 161 158 153 150 148 151 154 156 155 152 155 159 163 166 169 172 175 176 168 163 164 168 165 160 156 154 152 153 155 158 160 161 163 163 167 175 185 195 209 223 228 227 222 219 217 220 215 207 196 192 191 185 177 173 167 157 149 142 136 130 129 135 161 198 220 220 224 235 246 252 252 248 237 220 203 199 201